SCP
0 -0 -0 -0 -0 -0 -0 -0 0 0 0 0 0 0 0 0 0 0 0 0 0 0 0 0 0 0 -0 0 0 0 0 0 0 0 0 0 0 0 0 0 0 0 0
0 -0 -0 -0 -0 -0 -0 -0 -0 -0 0 0 0 0 0 0 0 0 0 0 0 0 0 0 -0 0 0 0 0 0 -0 0 0 0 0 0 0 0 0 0 0 0 0
-0 -0 -0 -0 -0 -0 -0 -0 -0 -0 -0 0 0 0 0 0 0 0 0 0 0 0 0 0 0 0 0 0 0 0 0 0 0 0 0 0 0 0 0 1 0 0 0
0 0 -0 -0 -0 -0 0 0 0 0 0 1 0 1 1 0 0 1 0 1 0 0 0 1 0 1 0 0 1 0 0 1 0 0 0 0 0 0 0 1 0 0 0
0 0 -0 -0 -0 0 -0 1 0 1 1 1 0 1 1 0 1 2 2 1 2 1 0 0 1 1 1 1 1 1 1 0 1 0 1 1 1 1 1 0 0 1 0
0 0 0 0 0 0 0 0 1 1 1 1 1 2 2 1 1 2 2 2 1 1 1 1 1 1 1 1 1 1 1 1 1 1 2 1 2 1 1 1 0 0 0
0 0 0 0 0 0 0 0 1 1 1 1 1 2 3 3 3 3 2 1 2 1 1 1 2 2 2 1 1 1 1 1 1 1 1 1 1 1 0 0 0 0 0
0 0 0 0 0 0 0 0 1 1 2 1 2 3 4 5 3 1 2 2 1 2 2 2 2 1 2 1 1 2 1 1 1 0 1 0 0 0 0 0 0 0 0
0 0 0 0 0 0 1 2 2 2 3 8 7 7 5 5 3 1 1 1 2 2 2 2 2 1 1 1 1 1 1 1 0 0 1 0 0 0 1 0 0 0 0
0 0 0 0 0 0 1 5 6 9 3 2 0 0 0 0 1 -0 1 1 1 1 2 1 1 1 1 0 1 0 0 0 0 0 0 0 0 0 0 0 0 0 0
1 0 0 1 1 4 6 7 7 3 2 1 0 0 0 0 0 0 1 1 1 1 1 1 1 1 0 0 0 0 0 0 0 0 0 0 0 0 0 0 0 0 0
0 1 1 1 3 5 6 3 3 2 1 0 0 0 0 0 1 0 0 1 1 1 1 1 0 0 0 0 0 0 0 0 0 0 0 0 0 0 0 0 0 0 0
1 1 1 1 2 2 2 2 1 1 0 0 0 0 0 1 2 1 1 1 1 0 0 0 0 0 0 0 0 0 0 0 0 0 0 0 0 0 0 0 0 0 0
1 1 1 2 1 1 1 1 1 0 0 0 1 1 1 1 1 1 1 1 1 0 0 0 0 0 0 0 0 0 0 0 0 0 0 0 0 0 0 0 0 0 0
1 2 2 1 2 1 1 1 0 0 1 1 1 1 1 1 1 1 1 0 0 0 0 0 0 0 0 0 0 0 0 0 0 0 0 0 0 0 0 0 0 0 0
1 2 1 1 1 1 1 2 1 1 1 1 1 1 1 1 1 1 1 0 0 0 0 0 0 0 0 0 0 0 0 0 0 0 0 0 0 0 0 0 0 0 0
1 1 1 1 1 2 2 1 1 1 1 0 2 2 1 0 0 0 0 0 0 0 0 0 0 0 0 0 0 0 0 0 0 0 0 0 0 0 0 0 0 0 0
1 1 2 2 1 2 1 1 0 0 0 0 0 0 0 0 0 0 -0 0 0 0 0 0 0 0 0 0 0 0 0 0 0 0 0 0 0 0 0 0 0 0 0
1 1 1 1 0 0 0 0 0 0 0 0 0 0 0 0 -0 -0 0 0 0 0 0 0 0 0 0 0 0 0 0 0 0 0 0 0 0 0 0 0 0 0 0
0 0 0 0 0 0 0 0 0 0 0 0 0 -0 0 0 0 0 0 0 0 0 0 0 0 0 0 0 0 0 0 0 0 0 0 0 0 0 0 0 0 0 0
0 0 0 0 0 0 0 0 0 0 0 0 -0 0 0 0 0 0 0 0 0 0 0 0 0 0 0 0 0 0 0 0 0 0 0 0 0 0 0 0 0 0 0
0 0 0 0 0 0 0 0 0 0 0 0 0 0 0 0 0 0 0 0 0 0 0 0 0 0 0 0 0 0 0 0 0 0 0 0 0 0 0 0 0 0 0
-0 -0 0 0 0 0 0 0 0 0 0 0 0 0 0 0 0 0 0 0 1 0 0 0 0 0 0 0 0 -0 -0 -0 0 0 -0 -0 0 0 0 0 0 0 0
0 0 0 0 0 0 0 0 0 0 0 0 0 0 0 0 0 0 0 0 0 0 0 0 0 0 0 0 0 0 0 0 0 0 -0 -0 0 0 0 0 0 0 0
0 0 0 0 0 0 0 0 0 0 0 0 0 0 0 0 0 0 0 0 0 0 0 0 0 0 0 0 -0 -0 -0 0 -0 0 0 0 0 0 0 0 0 0 0
-0 0 0 0 0 0 0 0 0 0 0 0 0 0 0 0 0 0 0 0 0 0 0 0 0 0 0 0 -0 0 0 0 0 0 0 0 0 0 0 0 0 0 0
Wind_Speed_500mb
47 51 52 52 49 48 47 47 45 46 45 39 34 34 32 30 29 29 29 27 26 20 20 16 19 16 16 18 14 17 17 14 15 15 16 18 21 18 19 25 21 23 23
49 54 58 60 60 58 58 56 55 53 52 41 41 36 33 29 27 27 30 32 30 25 21 22 19 21 22 24 19 20 17 19 18 16 18 17 9 19 19 15 18 21 23
55 58 63 68 65 67 67 62 62 60 58 52 44 45 36 36 30 29 31 31 31 29 26 24 25 24 29 22 28 19 18 19 24 22 18 18 18 12 21 30 19 21 23
54 61 66 69 72 73 67 66 64 62 64 60 49 50 43 37 32 31 34 34 32 33 34 35 32 33 23 25 25 21 17 24 22 23 21 26 25 24 20 13 25 32 27
54 63 71 74 70 67 71 74 69 64 64 64 58 53 47 33 32 31 31 33 31 35 42 37 35 35 32 33 34 29 32 27 32 29 29 28 30 28 28 32 27 17 22
51 57 69 68 68 70 70 68 70 68 65 63 61 62 48 40 32 32 32 32 31 36 36 36 38 38 38 34 33 34 33 40 36 33 32 29 28 28 27 27 32 35 36
49 48 58 72 71 68 69 69 60 58 57 57 52 56 56 44 37 29 33 31 29 25 28 33 37 37 34 34 34 35 38 32 32 29 24 20 25 25 30 33 35 38 39
43 22 42 63 72 71 70 64 59 50 45 43 39 36 35 29 23 28 29 31 25 25 30 27 28 28 26 27 27 32 28 24 16 16 21 22 23 28 30 32 32 37 36
20 29 35 47 62 71 73 69 57 44 42 48 50 48 38 18 21 32 36 34 32 27 24 19 22 18 20 22 27 24 13 15 15 17 31 24 26 31 35 33 28 30 30
11 17 24 25 37 46 63 62 60 63 59 57 53 48 36 16 34 48 40 35 30 24 23 18 19 19 21 16 9 4 14 13 17 19 23 21 22 24 26 28 31 32 36
14 9 5 9 16 24 38 58 60 61 47 41 39 47 60 27 53 47 42 36 27 24 17 17 15 11 10 8 6 7 13 14 16 17 17 18 19 21 23 27 28 31 31
5 2 11 19 24 26 32 39 40 37 44 44 40 43 54 59 56 42 32 27 20 13 12 11 13 9 4 3 5 8 11 11 15 17 20 24 25 28 32 32 35 33 36
1 9 18 26 25 30 36 34 32 47 48 37 32 39 24 45 38 32 27 14 14 18 18 17 9 5 5 6 7 8 9 14 19 24 27 31 33 34 35 36 33 35 43
5 18 19 30 32 30 32 31 29 26 22 18 17 14 20 24 26 21 20 25 24 21 16 13 3 4 8 10 12 13 18 22 27 31 33 34 37 39 42 34 39 42 46
14 23 27 25 36 38 35 33 30 29 29 22 17 17 17 15 19 23 26 22 16 14 9 8 5 9 11 17 16 19 23 26 32 35 39 38 40 41 47 50 33 45 39
34 29 30 26 28 32 35 34 30 26 21 23 24 23 24 18 13 15 15 14 9 3 4 4 11 15 18 26 28 33 34 33 32 43 45 46 46 43 34 35 38 38 34
31 29 32 29 28 30 34 35 36 38 36 26 20 18 22 19 9 5 2 2 6 7 9 9 16 22 27 33 33 34 33 34 33 42 37 37 27 25 21 25 33 31 33
38 45 45 42 38 28 37 38 31 33 37 32 22 18 18 9 15 13 3 10 14 11 13 17 24 29 32 33 37 34 32 31 44 30 32 34 31 34 35 36 30 29 31
45 41 51 44 36 25 33 30 42 31 31 29 6 4 15 12 5 3 7 5 8 13 18 23 24 25 28 29 31 36 33 36 37 35 38 34 28 38 34 35 32 34 32
36 29 18 14 19 21 24 5 16 26 7 20 22 15 5 3 7 7 3 8 6 13 11 15 22 23 24 27 28 34 30 32 30 25 27 20 18 32 33 36 39 37 38
28 24 21 16 12 14 13 35 20 12 14 12 18 10 8 8 6 3 3 6 5 11 20 25 23 30 21 20 28 30 22 25 27 28 28 25 28 33 36 40 40 39 50
12 13 15 17 15 8 9 11 18 16 15 17 12 8 8 8 9 6 5 7 14 24 27 17 18 10 16 26 25 29 30 27 25 24 23 26 39 37 37 32 29 38 39
16 11 7 8 13 14 14 21 18 20 22 18 15 14 10 10 8 7 12 18 22 22 16 16 13 15 16 17 29 28 31 33 30 26 33 22 30 27 29 23 32 31 35
11 8 12 17 7 6 15 24 27 29 17 21 16 11 5 8 12 18 13 16 11 20 18 11 13 11 12 15 17 22 29 37 28 22 20 27 27 26 20 27 30 34 38
7 5 16 21 13 18 22 24 15 16 21 17 11 6 13 17 14 15 15 9 18 11 4 8 12 8 8 14 25 36 33 37 25 34 28 31 36 35 35 36 34 36 33
2 18 25 23 25 26 24 22 17 14 8 3 7 16 23 16 10 12 12 13 12 4 7 3 8 3 8 16 27 33 30 41 33 25 31 32 32 32 33 33 36 41 40
Wind_Direction_500mb
209 209 211 210 209 207 206 203 207 211 203 205 208 211 218 225 225 227 226 225 227 226 236 223 244 262 263 262 280 275 279 268 270 281 270 261 249 243 264 254 252 252 254
214 210 211 211 211 210 210 212 209 214 216 213 211 214 219 225 230 232 231 229 223 222 223 230 233 248 250 251 255 258 255 266 253 257 280 274 280 252 273 244 250 256 256
215 215 212 210 210 212 213 214 218 215 226 213 216 214 211 219 222 227 229 230 222 218 226 224 236 226 248 256 268 252 243 262 264 259 262 289 269 266 284 252 244 244 248
220 218 216 212 210 211 213 216 222 224 227 228 212 213 213 217 225 229 230 220 218 217 216 227 231 242 231 237 254 261 253 266 264 256 262 261 274 281 284 278 261 272 257
233 222 220 217 216 212 210 215 219 224 223 226 215 220 216 222 226 225 225 223 226 227 225 233 237 242 245 238 249 252 261 257 263 263 260 259 272 269 272 285 291 271 267
236 233 225 217 215 215 213 213 217 220 221 220 225 211 222 213 224 230 233 226 233 231 235 229 239 239 241 248 249 257 264 272 254 252 257 257 267 274 273 277 282 284 283
243 225 227 218 214 213 214 212 210 213 214 215 218 210 210 226 216 232 245 237 231 234 242 235 235 236 244 251 255 259 282 268 263 268 271 280 284 285 278 280 281 282 285
284 235 230 229 221 212 211 211 210 209 206 204 200 197 203 217 233 260 252 254 244 237 241 230 240 242 237 244 257 278 272 272 260 268 265 274 281 282 288 291 283 283 282
278 276 267 227 231 221 209 203 200 201 193 185 182 180 184 194 268 273 274 263 247 248 228 222 234 226 241 248 267 267 258 262 280 287 295 285 293 287 281 286 286 285 284
295 283 255 245 225 233 220 195 181 182 180 175 177 171 176 243 270 273 260 259 252 227 228 230 228 242 246 254 244 264 299 288 285 278 275 283 286 279 283 283 283 282 287
346 322 139 167 155 151 158 167 168 172 165 162 166 162 165 298 276 258 266 266 248 244 223 228 221 207 212 213 265 276 282 290 284 292 295 294 298 298 291 291 286 286 286
302 136 103 132 121 106 124 161 175 170 173 186 182 211 251 246 212 242 244 236 228 207 217 176 158 140 127 253 287 281 276 295 296 294 296 298 296 294 287 288 291 291 291
67 118 125 127 137 140 138 156 162 176 192 209 241 251 198 175 204 220 216 188 168 150 142 151 157 175 224 281 282 278 287 293 295 294 292 294 296 290 287 285 286 282 292
165 125 123 122 129 133 140 144 164 183 191 169 156 161 187 201 197 182 169 162 159 145 157 141 121 319 313 284 270 282 294 296 296 293 291 288 288 282 278 281 289 288 289
130 110 110 121 123 133 145 139 144 153 153 160 172 164 165 167 162 151 151 151 144 145 148 88 318 301 293 281 242 282 286 290 296 298 297 292 286 286 283 287 283 284 289
85 89 110 122 126 130 134 133 131 132 137 126 120 124 124 128 150 142 153 134 113 121 7 315 276 280 282 277 272 280 281 292 301 299 296 290 288 279 283 286 293 296 305
97 98 116 111 118 118 125 124 120 119 112 108 90 104 100 109 83 42 60 92 227 260 284 262 273 278 278 275 277 281 282 299 295 292 292 288 282 308 278 293 307 313 301
107 108 115 115 107 104 96 102 101 110 116 104 101 112 118 30 354 358 166 202 226 258 268 277 272 278 279 279 282 281 291 305 300 280 293 286 294 287 283 298 306 302 301
107 110 119 118 98 106 119 136 135 138 133 111 120 156 105 110 111 99 196 163 218 250 287 291 288 289 288 284 281 291 299 299 300 292 297 290 276 287 283 302 306 302 303
116 113 114 92 84 123 148 125 158 133 90 105 106 98 111 147 131 127 187 261 291 298 278 306 305 305 299 295 303 309 306 303 305 304 310 320 279 280 296 304 309 301 304
121 116 119 115 131 160 175 141 161 184 124 111 114 129 119 109 98 61 333 303 325 318 318 316 304 298 300 314 336 337 333 317 313 309 299 313 312 315 309 304 307 305 309
112 125 121 117 123 145 170 170 149 125 133 130 119 93 74 90 59 37 25 336 315 322 313 317 336 332 338 340 9 18 6 352 337 323 314 316 308 312 312 310 311 325 324
137 126 150 165 145 140 141 144 131 121 122 118 112 103 97 76 55 347 313 322 332 335 349 10 11 0 22 24 12 7 4 344 339 314 314 334 333 334 328 332 328 315 324
190 165 135 139 158 176 133 119 134 133 118 125 122 113 56 19 339 329 325 338 358 0 19 8 24 64 36 29 7 358 347 342 351 350 354 339 345 354 6 341 337 326 324
241 165 146 168 148 139 137 134 141 133 130 121 78 35 340 340 335 313 322 355 329 310 228 141 117 73 65 18 13 6 16 16 13 359 5 5 1 354 354 350 355 349 344
300 122 121 119 122 119 115 107 108 100 96 34 317 333 343 331 351 339 328 325 303 269 167 151 142 91 18 7 10 15 9 17 7 21 14 1 4 359 355 352 345 341 343
Wind_Speed_850mb
47 51 52 52 49 48 47 47 45 46 45 39 34 34 32 30 29 29 29 27 26 20 20 16 19 16 16 18 14 17 17 14 15 15 16 18 21 18 19 25 21 23 23
49 54 58 60 60 58 58 56 55 53 52 41 41 36 33 29 27 27 30 32 30 25 21 22 19 21 22 24 19 20 17 19 18 16 18 17 9 19 19 15 18 21 23
55 58 63 68 65 67 67 62 62 60 58 52 44 45 36 36 30 29 31 31 31 29 26 24 25 24 29 22 28 19 18 19 24 22 18 18 18 12 21 30 19 21 23
54 61 66 69 72 73 67 66 64 62 64 60 49 50 43 37 32 31 34 34 32 33 34 35 32 33 23 25 25 21 17 24 22 23 21 26 25 24 20 13 25 32 27
54 63 71 74 70 67 71 74 69 64 64 64 58 53 47 33 32 31 31 33 31 35 42 37 35 35 32 33 34 29 32 27 32 29 29 28 30 28 28 32 27 17 22
51 57 69 68 68 70 70 68 70 68 65 63 61 62 48 40 32 32 32 32 31 36 36 36 38 38 38 34 33 34 33 40 36 33 32 29 28 28 27 27 32 35 36
49 48 58 72 71 68 69 69 60 58 57 57 52 56 56 44 37 29 33 31 29 25 28 33 37 37 34 34 34 35 38 32 32 29 24 20 25 25 30 33 35 38 39
43 22 42 63 72 71 70 64 59 50 45 43 39 36 35 29 23 28 29 31 25 25 30 27 28 28 26 27 27 32 28 24 16 16 21 22 23 28 30 32 32 37 36
20 29 35 47 62 71 73 69 57 44 42 48 50 48 38 18 21 32 36 34 32 27 24 19 22 18 20 22 27 24 13 15 15 17 31 24 26 31 35 33 28 30 30
11 17 24 25 37 46 63 62 60 63 59 57 53 48 36 16 34 48 40 35 30 24 23 18 19 19 21 16 9 4 14 13 17 19 23 21 22 24 26 28 31 32 36
14 9 5 9 16 24 38 58 60 61 47 41 39 47 60 27 53 47 42 36 27 24 17 17 15 11 10 8 6 7 13 14 16 17 17 18 19 21 23 27 28 31 31
5 2 11 19 24 26 32 39 40 37 44 44 40 43 54 59 56 42 32 27 20 13 12 11 13 9 4 3 5 8 11 11 15 17 20 24 25 28 32 32 35 33 36
1 9 18 26 25 30 36 34 32 47 48 37 32 39 24 45 38 32 27 14 14 18 18 17 9 5 5 6 7 8 9 14 19 24 27 31 33 34 35 36 33 35 43
5 18 19 30 32 30 32 31 29 26 22 18 17 14 20 24 26 21 20 25 24 21 16 13 3 4 8 10 12 13 18 22 27 31 33 34 37 39 42 34 39 42 46
14 23 27 25 36 38 35 33 30 29 29 22 17 17 17 15 19 23 26 22 16 14 9 8 5 9 11 17 16 19 23 26 32 35 39 38 40 41 47 50 33 45 39
34 29 30 26 28 32 35 34 30 26 21 23 24 23 24 18 13 15 15 14 9 3 4 4 11 15 18 26 28 33 34 33 32 43 45 46 46 43 34 35 38 38 34
31 29 32 29 28 30 34 35 36 38 36 26 20 18 22 19 9 5 2 2 6 7 9 9 16 22 27 33 33 34 33 34 33 42 37 37 27 25 21 25 33 31 33
38 45 45 42 38 28 37 38 31 33 37 32 22 18 18 9 15 13 3 10 14 11 13 17 24 29 32 33 37 34 32 31 44 30 32 34 31 34 35 36 30 29 31
45 41 51 44 36 25 33 30 42 31 31 29 6 4 15 12 5 3 7 5 8 13 18 23 24 25 28 29 31 36 33 36 37 35 38 34 28 38 34 35 32 34 32
36 29 18 14 19 21 24 5 16 26 7 20 22 15 5 3 7 7 3 8 6 13 11 15 22 23 24 27 28 34 30 32 30 25 27 20 18 32 33 36 39 37 38
28 24 21 16 12 14 13 35 20 12 14 12 18 10 8 8 6 3 3 6 5 11 20 25 23 30 21 20 28 30 22 25 27 28 28 25 28 33 36 40 40 39 50
12 13 15 17 15 8 9 11 18 16 15 17 12 8 8 8 9 6 5 7 14 24 27 17 18 10 16 26 25 29 30 27 25 24 23 26 39 37 37 32 29 38 39
16 11 7 8 13 14 14 21 18 20 22 18 15 14 10 10 8 7 12 18 22 22 16 16 13 15 16 17 29 28 31 33 30 26 33 22 30 27 29 23 32 31 35
11 8 12 17 7 6 15 24 27 29 17 21 16 11 5 8 12 18 13 16 11 20 18 11 13 11 12 15 17 22 29 37 28 22 20 27 27 26 20 27 30 34 38
7 5 16 21 13 18 22 24 15 16 21 17 11 6 13 17 14 15 15 9 18 11 4 8 12 8 8 14 25 36 33 37 25 34 28 31 36 35 35 36 34 36 33
2 18 25 23 25 26 24 22 17 14 8 3 7 16 23 16 10 12 12 13 12 4 7 3 8 3 8 16 27 33 30 41 33 25 31 32 32 32 33 33 36 41 40
Wind_Direction_850mb
209 209 211 210 209 207 206 203 207 211 203 205 208 211 218 225 225 227 226 225 227 226 236 223 244 262 263 262 280 275 279 268 270 281 270 261 249 243 264 254 252 252 254
214 210 211 211 211 210 210 212 209 214 216 213 211 214 219 225 230 232 231 229 223 222 223 230 233 248 250 251 255 258 255 266 253 257 280 274 280 252 273 244 250 256 256
215 215 212 210 210 212 213 214 218 215 226 213 216 214 211 219 222 227 229 230 222 218 226 224 236 226 248 256 268 252 243 262 264 259 262 289 269 266 284 252 244 244 248
220 218 216 212 210 211 213 216 222 224 227 228 212 213 213 217 225 229 230 220 218 217 216 227 231 242 231 237 254 261 253 266 264 256 262 261 274 281 284 278 261 272 257
233 222 220 217 216 212 210 215 219 224 223 226 215 220 216 222 226 225 225 223 226 227 225 233 237 242 245 238 249 252 261 257 263 263 260 259 272 269 272 285 291 271 267
236 233 225 217 215 215 213 213 217 220 221 220 225 211 222 213 224 230 233 226 233 231 235 229 239 239 241 248 249 257 264 272 254 252 257 257 267 274 273 277 282 284 283
243 225 227 218 214 213 214 212 210 213 214 215 218 210 210 226 216 232 245 237 231 234 242 235 235 236 244 251 255 259 282 268 263 268 271 280 284 285 278 280 281 282 285
284 235 230 229 221 212 211 211 210 209 206 204 200 197 203 217 233 260 252 254 244 237 241 230 240 242 237 244 257 278 272 272 260 268 265 274 281 282 288 291 283 283 282
278 276 267 227 231 221 209 203 200 201 193 185 182 180 184 194 268 273 274 263 247 248 228 222 234 226 241 248 267 267 258 262 280 287 295 285 293 287 281 286 286 285 284
295 283 255 245 225 233 220 195 181 182 180 175 177 171 176 243 270 273 260 259 252 227 228 230 228 242 246 254 244 264 299 288 285 278 275 283 286 279 283 283 283 282 287
346 322 139 167 155 151 158 167 168 172 165 162 166 162 165 298 276 258 266 266 248 244 223 228 221 207 212 213 265 276 282 290 284 292 295 294 298 298 291 291 286 286 286
302 136 103 132 121 106 124 161 175 170 173 186 182 211 251 246 212 242 244 236 228 207 217 176 158 140 127 253 287 281 276 295 296 294 296 298 296 294 287 288 291 291 291
67 118 125 127 137 140 138 156 162 176 192 209 241 251 198 175 204 220 216 188 168 150 142 151 157 175 224 281 282 278 287 293 295 294 292 294 296 290 287 285 286 282 292
165 125 123 122 129 133 140 144 164 183 191 169 156 161 187 201 197 182 169 162 159 145 157 141 121 319 313 284 270 282 294 296 296 293 291 288 288 282 278 281 289 288 289
130 110 110 121 123 133 145 139 144 153 153 160 172 164 165 167 162 151 151 151 144 145 148 88 318 301 293 281 242 282 286 290 296 298 297 292 286 286 283 287 283 284 289
85 89 110 122 126 130 134 133 131 132 137 126 120 124 124 128 150 142 153 134 113 121 7 315 276 280 282 277 272 280 281 292 301 299 296 290 288 279 283 286 293 296 305
97 98 116 111 118 118 125 124 120 119 112 108 90 104 100 109 83 42 60 92 227 260 284 262 273 278 278 275 277 281 282 299 295 292 292 288 282 308 278 293 307 313 301
107 108 115 115 107 104 96 102 101 110 116 104 101 112 118 30 354 358 166 202 226 258 268 277 272 278 279 279 282 281 291 305 300 280 293 286 294 287 283 298 306 302 301
107 110 119 118 98 106 119 136 135 138 133 111 120 156 105 110 111 99 196 163 218 250 287 291 288 289 288 284 281 291 299 299 300 292 297 290 276 287 283 302 306 302 303
116 113 114 92 84 123 148 125 158 133 90 105 106 98 111 147 131 127 187 261 291 298 278 306 305 305 299 295 303 309 306 303 305 304 310 320 279 280 296 304 309 301 304
121 116 119 115 131 160 175 141 161 184 124 111 114 129 119 109 98 61 333 303 325 318 318 316 304 298 300 314 336 337 333 317 313 309 299 313 312 315 309 304 307 305 309
112 125 121 117 123 145 170 170 149 125 133 130 119 93 74 90 59 37 25 336 315 322 313 317 336 332 338 340 9 18 6 352 337 323 314 316 308 312 312 310 311 325 324
137 126 150 165 145 140 141 144 131 121 122 118 112 103 97 76 55 347 313 322 332 335 349 10 11 0 22 24 12 7 4 344 339 314 314 334 333 334 328 332 328 315 324
190 165 135 139 158 176 133 119 134 133 118 125 122 113 56 19 339 329 325 338 358 0 19 8 24 64 36 29 7 358 347 342 351 350 354 339 345 354 6 341 337 326 324
241 165 146 168 148 139 137 134 141 133 130 121 78 35 340 340 335 313 322 355 329 310 228 141 117 73 65 18 13 6 16 16 13 359 5 5 1 354 354 350 355 349 344
300 122 121 119 122 119 115 107 108 100 96 34 317 333 343 331 351 339 328 325 303 269 167 151 142 91 18 7 10 15 9 17 7 21 14 1 4 359 355 352 345 341 343